Regional Weather Roundup
Issued by NWS Albany, NY

Home | Current Version | Previous Version | Text Only | Print | Product List | Glossary On
Versions: 1 2 3 4 5 6 7 8 9 10 11 12 13 14 15 16 17 18 19 20 21 22 23 24 25 26 27 28 29 30 31 32 33 34 35 36 37 38 39 40 41 42 43 44 45 46 47 48
000
ASUS41 KALY 031310
RWRALY

NEW YORK STATE HOURLY WEATHER ROUNDUP
NATIONAL WEATHER SERVICE ALBANY NY
900 AM EDT FRI JUL 03 2015

NOTE: "FAIR" INDICATES FEW OR NO CLOUDS BELOW 12,000 FEET WITH NO
SIGNIFICANT WEATHER AND/OR NO OBSTRUCTIONS TO VISIBILITY.

NYZ032-033-038>043-046>054-057>066-NYZ062>081-031400-
EAST


CITY           SKY/WX    TMP DP  RH WIND       PRES   REMARKS
ALBANY         MOSUNNY   64  50  60 N5        30.02R
GLENS FALLS    MOSUNNY   64  52  64 S5        30.01R
POUGHKEEPSIE   SUNNY     65  52  62 N5        30.01R
NEWBURGH       SUNNY     66  54  63 E7        30.03R
MONTGOMERY     SUNNY     65  54  67 CALM      30.02R
WHITE PLAINS   SUNNY     68  51  54 N10       29.99R
ISLIP          MOSUNNY   70  54  56 N12       29.96R
NEW YORK CITY  MOSUNNY   70  50  49 N10       29.98R
CENTRAL PARK   SUNNY     69  53  56 VRB6      30.01R
$$

NYZ005>009-017-018-044>046-055-056-031400-
CENTRAL


CITY           SKY/WX    TMP DP  RH WIND       PRES   REMARKS
FULTON         SUNNY     62  53  72 W3        30.02S
SYRACUSE       MOSUNNY   62  50  64 CALM      30.03R
ROME           SUNNY     60  51  72 CALM      30.04R
ELMIRA         SUNNY     58  53  84 CALM      30.03S
BINGHAMTON     SUNNY     59  48  67 VRB3      30.04R
MONTICELLO     SUNNY     61  48  63 CALM      30.05R
$$

NYZ026>034-041>043-031400-
NORTH


CITY           SKY/WX    TMP DP  RH WIND       PRES   REMARKS
WATERTOWN      SUNNY     62  52  69 SW5       30.01S
FORT DRUM      NOT AVBL
MASSENA        SUNNY     62  52  69 SW7       30.01R
SARANAC LAKE   MOSUNNY   56  49  77 S5        30.01R
PLATTSBURGH    PTSUNNY   64  50  60 CALM      29.98R
$$

NYZ001>004-010>016-019>021-031400-
WEST


CITY           SKY/WX    TMP DP  RH WIND       PRES   REMARKS
NIAGARA FALLS  MOSUNNY   62  46  55 CALM      30.01S
BUFFALO        MOSUNNY   62  49  62 CALM      30.02S
DUNKIRK        SUNNY     63  50  62 E5        30.02S
JAMESTOWN      SUNNY     57  48  72 SE3       30.05R
WELLSVILLE     SUNNY     56  49  77 CALM      30.06R
ROCHESTER      SUNNY     61  52  72 SW6       30.02S
PENN YAN       SUNNY     61  51  70 SW5       30.03R
$$

             KEY
       WCI = WIND CHILL INDEX
       VSB = VISIBILITY
       HX  = HEAT INDEX
$$


USA.gov is the U.S. government's official web portal to all federal, state and local government web resources and services.